owner,sensor,date,latitude,longitude,vertical_datum,direction_of_sea_water_velocity,sea_water_speed,upward_sea_water_velocity,qcFlag 
TABS,ioos:station:wmo:42045:1,2007-03-09T04:30:00Z,26.2168,-96.4998,2.0,350.2241034,18.61024449,-99999.0,'11111222,11111222,99999999' 
TABS,ioos:station:wmo:42045:1,2007-03-09T05:00:00Z,26.2168,-96.4998,2.0,310.0240631,18.83052044,-99999.0,'11111222,11111222,99999999' 
TABS,ioos:station:wmo:42045:1,2007-03-09T05:30:00Z,26.2168,-96.4998,2.0,314.6782072,20.12457701,-99999.0,'11111222,11111222,99999999' 
TABS,ioos:station:wmo:42045:1,2007-03-09T06:00:00Z,26.2168,-96.4998,2.0,320.7894088,18.99785514,-99999.0,'11111222,11111222,99999999' 
TABS,ioos:station:wmo:42045:1,2007-03-09T06:30:00Z,26.2168,-96.4998,2.0,322.7413117,17.37640066,-99999.0,'11111222,11111222,99999999' 
TABS,ioos:station:wmo:42045:1,2007-03-09T07:00:00Z,26.2168,-96.4998,2.0,325.5090994,20.43160542,-99999.0,'11111222,11111222,99999999' 
TABS,ioos:station:wmo:42045:1,2007-03-09T07:30:00Z,26.2168,-96.4998,2.0,326.6746824,19.18469442,-99999.0,'11111222,11111222,99999999' 
TABS,ioos:station:wmo:42045:1,2007-03-09T08:00:00Z,26.2168,-96.4998,2.0,322.6563097,17.88661231,-99999.0,'11111222,11111222,99999999' 
TABS,ioos:station:wmo:42045:1,2007-03-09T08:30:00Z,26.2168,-96.4998,2.0,326.9106257,21.17406905,-99999.0,'11111222,11111222,99999999' 
TABS,ioos:station:wmo:42045:1,2007-03-09T09:00:00Z,26.2168,-96.4998,2.0,331.287641,19.69122901,-99999.0,'11111222,11111222,99999999' 
TABS,ioos:station:wmo:42045:1,2007-03-09T09:30:00Z,26.2168,-96.4998,2.0,332.1579382,20.0625148,-99999.0,'11111222,11111222,99999999' 
TABS,ioos:station:wmo:42045:1,2007-03-09T10:00:00Z,26.2168,-96.4998,2.0,330.1863886,20.59598262,-99999.0,'11111222,11111222,99999999' 
TABS,ioos:station:wmo:42045:1,2007-03-09T10:30:00Z,26.2168,-96.4998,2.0,336.0743818,17.48223384,-99999.0,'11111222,11111222,99999999' 
TABS,ioos:station:wmo:42045:1,2007-03-09T11:00:00Z,26.2168,-96.4998,2.0,336.7377227,15.29326976,-99999.0,'11111222,11111222,99999999' 
TABS,ioos:station:wmo:42045:1,2007-03-09T11:30:00Z,26.2168,-96.4998,2.0,328.0212052,16.16284938,-99999.0,'11111222,11111222,99999999' 
TABS,ioos:station:wmo:42045:1,2007-03-09T12:00:00Z,26.2168,-96.4998,2.0,328.721683,15.29275972,-99999.0,'11111222,11111222,99999999' 
TABS,ioos:station:wmo:42045:1,2007-03-09T12:30:00Z,26.2168,-96.4998,2.0,332.7588574,15.53281043,-99999.0,'11111222,11111222,99999999' 
TABS,ioos:station:wmo:42045:1,2007-03-09T13:00:00Z,26.2168,-96.4998,2.0,7.400654482,25.54276806,-99999.0,'11111222,11111222,99999999' 
TABS,ioos:station:wmo:42045:1,2007-03-09T13:30:00Z,26.2168,-96.4998,2.0,13.65201717,22.41322154,-99999.0,'11111222,11111222,99999999' 
TABS,ioos:station:wmo:42045:1,2007-03-09T14:00:00Z,26.2168,-96.4998,2.0,10.99462157,18.87646418,-99999.0,'11111222,11111222,99999999' 
TABS,ioos:station:wmo:42045:1,2007-03-09T14:30:00Z,26.2168,-96.4998,2.0,13.02426177,18.94741407,-99999.0,'11111222,11111222,99999999' 
TABS,ioos:station:wmo:42045:1,2007-03-09T15:00:00Z,26.2168,-96.4998,2.0,22.38792649,24.49635483,-99999.0,'11111222,11111222,99999999' 
TABS,ioos:station:wmo:42045:1,2007-03-09T15:30:00Z,26.2168,-96.4998,2.0,20.25585064,16.52175535,-99999.0,'11111222,11111222,99999999' 
TABS,ioos:station:wmo:42045:1,2007-03-09T16:00:00Z,26.2168,-96.4998,2.0,33.22546051,18.12265157,-99999.0,'11111222,11111222,99999999' 
TABS,ioos:station:wmo:42045:1,2007-03-09T16:30:00Z,26.2168,-96.4998,2.0,59.81948833,26.09766273,-99999.0,'11111222,11111222,99999999' 
TABS,ioos:station:wmo:42045:1,2007-03-09T17:00:00Z,26.2168,-96.4998,2.0,56.16819064,14.56647178,-99999.0,'11111222,11111222,99999999' 
TABS,ioos:station:wmo:42045:1,2007-03-09T17:30:00Z,26.2168,-96.4998,2.0,85.72801828,16.64624883,-99999.0,'11111222,11111222,99999999' 
TABS,ioos:station:wmo:42045:1,2007-03-09T18:00:00Z,26.2168,-96.4998,2.0,86.12148457,9.461670043,-99999.0,'11133222,11111222,99999999' 
TABS,ioos:station:wmo:42045:1,2007-03-09T18:30:00Z,26.2168,-96.4998,2.0,83.74340529,6.056071334,-99999.0,'11133222,11111222,99999999' 
TABS,ioos:station:wmo:42045:1,2007-03-09T19:00:00Z,26.2168,-96.4998,2.0,141.0042045,13.58735074,-99999.0,'11111222,11111222,99999999' 
TABS,ioos:station:wmo:42045:1,2007-03-09T19:30:00Z,26.2168,-96.4998,2.0,160.6165968,7.83403472,-99999.0,'11133222,11111222,99999999' 
TABS,ioos:station:wmo:42045:1,2007-03-09T20:00:00Z,26.2168,-96.4998,2.0,166.2679463,16.89284464,-99999.0,'11111222,11111222,99999999' 
TABS,ioos:station:wmo:42045:1,2007-03-09T20:30:00Z,26.2168,-96.4998,2.0,168.417273,11.95341374,-99999.0,'11111222,11111222,99999999' 
TABS,ioos:station:wmo:42045:1,2007-03-09T21:00:00Z,26.2168,-96.4998,2.0,181.6470534,7.653162745,-99999.0,'11133222,11111222,99999999' 
TABS,ioos:station:wmo:42045:1,2007-03-09T21:30:00Z,26.2168,-96.4998,2.0,193.2938167,6.740630534,-99999.0,'11133222,11111222,99999999' 
TABS,ioos:station:wmo:42045:1,2007-03-09T22:00:00Z,26.2168,-96.4998,2.0,203.5403367,9.238885214,-99999.0,'11133222,11111222,99999999' 
TABS,ioos:station:wmo:42045:1,2007-03-09T22:30:00Z,26.2168,-96.4998,2.0,240.420383,9.440323088,-99999.0,'11133222,11111222,99999999' 
TABS,ioos:station:wmo:42045:1,2007-03-09T23:00:00Z,26.2168,-96.4998,2.0,230.5143071,10.08050098,-99999.0,'11111222,11111222,99999999' 
TABS,ioos:station:wmo:42045:1,2007-03-09T23:30:00Z,26.2168,-96.4998,2.0,220.8615563,12.64066849,-99999.0,'11111222,11111222,99999999' 
TABS,ioos:station:wmo:42045:1,2007-03-10T00:00:00Z,26.2168,-96.4998,2.0,250.7479481,11.97992487,-99999.0,'11111222,11111222,99999999' 
TABS,ioos:station:wmo:42045:1,2007-03-10T00:30:00Z,26.2168,-96.4998,2.0,257.4887504,10.38663083,-99999.0,'11111222,11111222,99999999' 
TABS,ioos:station:wmo:42045:1,2007-03-10T01:00:00Z,26.2168,-96.4998,2.0,265.5332387,11.04353657,-99999.0,'11111222,11111222,99999999' 
TABS,ioos:station:wmo:42045:1,2007-03-10T01:30:00Z,26.2168,-96.4998,2.0,282.6864318,9.88121956,-99999.0,'11133222,11111222,99999999' 
TABS,ioos:station:wmo:42045:1,2007-03-10T02:00:00Z,26.2168,-96.4998,2.0,278.7739622,12.71882463,-99999.0,'11111222,11111222,99999999' 
TABS,ioos:station:wmo:42045:1,2007-03-10T02:30:00Z,26.2168,-96.4998,2.0,298.4210402,11.32491501,-99999.0,'11111222,11111222,99999999' 
TABS,ioos:station:wmo:42045:1,2007-03-10T03:00:00Z,26.2168,-96.4998,2.0,292.9066923,13.38555191,-99999.0,'11111222,11111222,99999999' 
TABS,ioos:station:wmo:42045:1,2007-03-10T03:30:00Z,26.2168,-96.4998,2.0,338.6470406,17.32961915,-99999.0,'11111222,11111222,99999999' 
TABS,ioos:station:wmo:42045:1,2007-03-10T04:00:00Z,26.2168,-96.4998,2.0,351.1803677,18.91364851,-99999.0,'11111222,11111222,99999999' 
TABS,ioos:station:wmo:42045:1,2007-03-10T04:30:00Z,26.2168,-96.4998,2.0,337.9949537,15.13240893,-99999.0,'11111222,11111222,99999999' 
TABS,ioos:station:wmo:42045:1,2007-03-10T05:00:00Z,26.2168,-96.4998,2.0,346.5892144,12.89153598,-99999.0,'11111222,11111222,99999999' 
TABS,ioos:station:wmo:42045:1,2007-03-10T05:30:00Z,26.2168,-96.4998,2.0,354.0015963,14.44911762,-99999.0,'11111222,11111222,99999999' 
TABS,ioos:station:wmo:42045:1,2007-03-10T06:00:00Z,26.2168,-96.4998,2.0,347.6524195,12.01800732,-99999.0,'11111222,11111222,99999999' 
TABS,ioos:station:wmo:42045:1,2007-03-10T06:30:00Z,26.2168,-96.4998,2.0,8.440820387,13.82979754,-99999.0,'11111222,11111222,99999999' 
TABS,ioos:station:wmo:42045:1,2007-03-10T07:00:00Z,26.2168,-96.4998,2.0,1.651519449,11.10461165,-99999.0,'11111222,11111222,99999999' 
TABS,ioos:station:wmo:42045:1,2007-03-10T07:30:00Z,26.2168,-96.4998,2.0,3.891007762,13.41090974,-99999.0,'11111222,11111222,99999999' 
TABS,ioos:station:wmo:42045:1,2007-03-10T08:00:00Z,26.2168,-96.4998,2.0,7.936026602,12.09583813,-99999.0,'11111222,11111222,99999999' 
TABS,ioos:station:wmo:42045:1,2007-03-10T08:30:00Z,26.2168,-96.4998,2.0,349.9300738,9.608017485,-99999.0,'11133222,11111222,99999999' 
TABS,ioos:station:wmo:42045:1,2007-03-10T09:00:00Z,26.2168,-96.4998,2.0,359.2405337,9.050795545,-99999.0,'11133222,11144222,99999999' 
TABS,ioos:station:wmo:42045:1,2007-03-10T09:30:00Z,26.2168,-96.4998,2.0,1.845957061,9.935154755,-99999.0,'11133222,11111222,99999999' 
TABS,ioos:station:wmo:42045:1,2007-03-10T10:00:00Z,26.2168,-96.4998,2.0,358.770515,13.51311215,-99999.0,'11111222,11111222,99999999' 
TABS,ioos:station:wmo:42045:1,2007-03-10T10:30:00Z,26.2168,-96.4998,2.0,2.398893075,11.22983971,-99999.0,'11111222,11111222,99999999' 
TABS,ioos:station:wmo:42045:1,2007-03-10T11:00:00Z,26.2168,-96.4998,2.0,358.5289804,12.07398029,-99999.0,'11111222,11111222,99999999' 
TABS,ioos:station:wmo:42045:1,2007-03-10T11:30:00Z,26.2168,-96.4998,2.0,3.639281235,14.80986158,-99999.0,'11111222,11111222,99999999' 
TABS,ioos:station:wmo:42045:1,2007-03-10T12:00:00Z,26.2168,-96.4998,2.0,26.83577906,15.15176557,-99999.0,'11111222,11111222,99999999' 
TABS,ioos:station:wmo:42045:1,2007-03-10T12:30:00Z,26.2168,-96.4998,2.0,28.49663619,16.8516379,-99999.0,'11111222,11111222,99999999' 
TABS,ioos:station:wmo:42045:1,2007-03-10T13:00:00Z,26.2168,-96.4998,2.0,34.24564128,17.16600419,-99999.0,'11111222,11111222,99999999' 
TABS,ioos:station:wmo:42045:1,2007-03-10T13:30:00Z,26.2168,-96.4998,2.0,33.72774549,16.92945362,-99999.0,'11111222,11111222,99999999' 
TABS,ioos:station:wmo:42045:1,2007-03-10T14:00:00Z,26.2168,-96.4998,2.0,29.66150767,15.31706565,-99999.0,'11111222,11111222,99999999' 
TABS,ioos:station:wmo:42045:1,2007-03-10T14:30:00Z,26.2168,-96.4998,2.0,29.794203,14.4500519,-99999.0,'11111222,11111222,99999999' 
TABS,ioos:station:wmo:42045:1,2007-03-10T15:00:00Z,26.2168,-96.4998,2.0,34.63380687,14.14677348,-99999.0,'11111222,11111222,99999999' 
TABS,ioos:station:wmo:42045:1,2007-03-10T15:30:00Z,26.2168,-96.4998,2.0,21.967037,12.21694725,-99999.0,'11111222,11111222,99999999' 
TABS,ioos:station:wmo:42045:1,2007-03-10T16:00:00Z,26.2168,-96.4998,2.0,23.07660616,12.93502609,-99999.0,'11111222,11111222,99999999' 
TABS,ioos:station:wmo:42045:1,2007-03-10T16:30:00Z,26.2168,-96.4998,2.0,14.81718749,10.32327467,-99999.0,'11111222,11111222,99999999' 
TABS,ioos:station:wmo:42045:1,2007-03-10T17:00:00Z,26.2168,-96.4998,2.0,15.5718408,10.31874508,-99999.0,'11111222,11111222,99999999' 
TABS,ioos:station:wmo:42045:1,2007-03-10T17:30:00Z,26.2168,-96.4998,2.0,61.11348578,10.92992681,-99999.0,'11111222,11111222,99999999' 
TABS,ioos:station:wmo:42045:1,2007-03-10T18:00:00Z,26.2168,-96.4998,2.0,48.15857285,5.261796271,-99999.0,'11133222,11111222,99999999' 
TABS,ioos:station:wmo:42045:1,2007-03-10T18:30:00Z,26.2168,-96.4998,2.0,105.3762153,0.829698741,-99999.0,'11133222,11111222,99999999' 
TABS,ioos:station:wmo:42045:1,2007-03-10T19:00:00Z,26.2168,-96.4998,2.0,300.3115633,1.505855239,-99999.0,'11133222,11111222,99999999' 
TABS,ioos:station:wmo:42045:1,2007-03-10T19:30:00Z,26.2168,-96.4998,2.0,270.5236543,2.190091322,-99999.0,'11133222,11111222,99999999' 
TABS,ioos:station:wmo:42045:1,2007-03-10T20:00:00Z,26.2168,-96.4998,2.0,280.0083773,3.79778883,-99999.0,'11133222,11111222,99999999' 
TABS,ioos:station:wmo:42045:1,2007-03-10T20:30:00Z,26.2168,-96.4998,2.0,285.4840072,6.817426201,-99999.0,'11133222,11111222,99999999' 
TABS,ioos:station:wmo:42045:1,2007-03-10T21:00:00Z,26.2168,-96.4998,2.0,274.0164852,5.282972648,-99999.0,'11133222,11111222,99999999' 
TABS,ioos:station:wmo:42045:1,2007-03-10T21:30:00Z,26.2168,-96.4998,2.0,301.2133698,8.278315046,-99999.0,'11133222,11111222,99999999' 
TABS,ioos:station:wmo:42045:1,2007-03-10T22:00:00Z,26.2168,-96.4998,2.0,298.761512,12.13734732,-99999.0,'11111222,11111222,99999999' 
TABS,ioos:station:wmo:42045:1,2007-03-10T22:30:00Z,26.2168,-96.4998,2.0,292.9551851,16.97413621,-99999.0,'11111222,11111222,99999999' 
TABS,ioos:station:wmo:42045:1,2007-03-10T23:00:00Z,26.2168,-96.4998,2.0,297.4710711,16.41031688,-99999.0,'11111222,11111222,99999999' 
TABS,ioos:station:wmo:42045:1,2007-03-10T23:30:00Z,26.2168,-96.4998,2.0,297.1223724,17.48240544,-99999.0,'11111222,11111222,99999999' 
TABS,ioos:station:wmo:42045:1,2007-03-11T00:00:00Z,26.2168,-96.4998,2.0,312.7442028,20.65645904,-99999.0,'11111222,11111222,99999999' 
TABS,ioos:station:wmo:42045:1,2007-03-11T00:30:00Z,26.2168,-96.4998,2.0,323.5123071,26.70459324,-99999.0,'11111222,11111222,99999999' 
TABS,ioos:station:wmo:42045:1,2007-03-11T01:00:00Z,26.2168,-96.4998,2.0,319.2739113,25.33536856,-99999.0,'11111222,11111222,99999999' 
TABS,ioos:station:wmo:42045:1,2007-03-11T01:30:00Z,26.2168,-96.4998,2.0,315.5565666,24.03569221,-99999.0,'11111222,11111222,99999999' 
TABS,ioos:station:wmo:42045:1,2007-03-11T02:00:00Z,26.2168,-96.4998,2.0,318.5188157,25.34806107,-99999.0,'11111222,11111222,99999999' 
TABS,ioos:station:wmo:42045:1,2007-03-11T02:30:00Z,26.2168,-96.4998,2.0,320.4750864,25.6435333,-99999.0,'11111222,11111222,99999999' 
TABS,ioos:station:wmo:42045:1,2007-03-11T03:00:00Z,26.2168,-96.4998,2.0,326.299573,29.84564457,-99999.0,'11111222,11111222,99999999' 
TABS,ioos:station:wmo:42045:1,2007-03-11T03:30:00Z,26.2168,-96.4998,2.0,326.4376986,29.91782913,-99999.0,'11111222,11111222,99999999' 
TABS,ioos:station:wmo:42045:1,2007-03-11T04:00:00Z,26.2168,-96.4998,2.0,328.7549314,31.40520021,-99999.0,'11111222,11111222,99999999' 
TABS,ioos:station:wmo:42045:1,2007-03-11T04:30:00Z,26.2168,-96.4998,2.0,337.8339165,29.15475947,-99999.0,'11111222,11111222,99999999' 
TABS,ioos:station:wmo:42045:1,2007-03-11T05:00:00Z,26.2168,-96.4998,2.0,341.7635588,27.41711145,-99999.0,'11111222,11111222,99999999' 
TABS,ioos:station:wmo:42045:1,2007-03-11T05:30:00Z,26.2168,-96.4998,2.0,339.3852454,28.43048012,-99999.0,'11111222,11111222,99999999' 
TABS,ioos:station:wmo:42045:1,2007-03-11T06:00:00Z,26.2168,-96.4998,2.0,336.9960045,32.90689441,-99999.0,'11111222,11111222,99999999' 
TABS,ioos:station:wmo:42045:1,2007-03-11T06:30:00Z,26.2168,-96.4998,2.0,337.8852943,42.0754798,-99999.0,'11111222,11111222,99999999' 
TABS,ioos:station:wmo:42045:1,2007-03-11T07:00:00Z,26.2168,-96.4998,2.0,340.2631736,45.36510112,-99999.0,'11111222,11111222,99999999' 
TABS,ioos:station:wmo:42045:1,2007-03-11T07:30:00Z,26.2168,-96.4998,2.0,341.6790449,43.0102232,-99999.0,'11111222,11111222,99999999' 
TABS,ioos:station:wmo:42045:1,2007-03-11T08:00:00Z,26.2168,-96.4998,2.0,347.6224681,41.14642755,-99999.0,'11111222,11111222,99999999' 
TABS,ioos:station:wmo:42045:1,2007-03-11T08:30:00Z,26.2168,-96.4998,2.0,348.9493122,41.21422691,-99999.0,'11111222,11111222,99999999' 
TABS,ioos:station:wmo:42045:1,2007-03-11T09:00:00Z,26.2168,-96.4998,2.0,352.748772,41.59266883,-99999.0,'11111222,11111222,99999999' 
TABS,ioos:station:wmo:42045:1,2007-03-11T09:30:00Z,26.2168,-96.4998,2.0,356.931388,39.22625269,-99999.0,'11111222,11111222,99999999' 
TABS,ioos:station:wmo:42045:1,2007-03-11T10:00:00Z,26.2168,-96.4998,2.0,3.210398727,37.67912552,-99999.0,'11111222,11111222,99999999' 
TABS,ioos:station:wmo:42045:1,2007-03-11T10:30:00Z,26.2168,-96.4998,2.0,4.452706536,35.93846129,-99999.0,'11111222,11111222,99999999' 
TABS,ioos:station:wmo:42045:1,2007-03-11T11:00:00Z,26.2168,-96.4998,2.0,5.19462722,36.22878414,-99999.0,'11111222,11111222,99999999' 
TABS,ioos:station:wmo:42045:1,2007-03-11T11:30:00Z,26.2168,-96.4998,2.0,4.24829407,36.17939745,-99999.0,'11111222,11111222,99999999' 
TABS,ioos:station:wmo:42045:1,2007-03-11T12:00:00Z,26.2168,-96.4998,2.0,8.555607958,35.62643541,-99999.0,'11111222,11111222,99999999' 
TABS,ioos:station:wmo:42045:1,2007-03-11T12:30:00Z,26.2168,-96.4998,2.0,5.157325372,33.37510449,-99999.0,'11111222,11111222,99999999' 
TABS,ioos:station:wmo:42045:1,2007-03-11T13:00:00Z,26.2168,-96.4998,2.0,17.38697113,32.32704905,-99999.0,'11111222,11111222,99999999' 
TABS,ioos:station:wmo:42045:1,2007-03-11T13:30:00Z,26.2168,-96.4998,2.0,15.29373684,30.06467861,-99999.0,'11111222,11111222,99999999' 
TABS,ioos:station:wmo:42045:1,2007-03-11T14:00:00Z,26.2168,-96.4998,2.0,18.3619417,27.2367197,-99999.0,'11111222,11111222,99999999' 
TABS,ioos:station:wmo:42045:1,2007-03-11T14:30:00Z,26.2168,-96.4998,2.0,22.68576081,28.15848007,-99999.0,'11111222,11111222,99999999' 
TABS,ioos:station:wmo:42045:1,2007-03-11T15:00:00Z,26.2168,-96.4998,2.0,19.52588383,27.07716566,-99999.0,'11111222,11111222,99999999' 
TABS,ioos:station:wmo:42045:1,2007-03-11T15:30:00Z,26.2168,-96.4998,2.0,21.54457273,28.56580123,-99999.0,'11111222,11111222,99999999' 
TABS,ioos:station:wmo:42045:1,2007-03-11T16:00:00Z,26.2168,-96.4998,2.0,25.58423696,27.95047406,-99999.0,'11111222,11111222,99999999' 
TABS,ioos:station:wmo:42045:1,2007-03-11T16:30:00Z,26.2168,-96.4998,2.0,28.17084995,27.45180504,-99999.0,'11111222,11111222,99999999' 
TABS,ioos:station:wmo:42045:1,2007-03-11T17:00:00Z,26.2168,-96.4998,2.0,33.10041192,26.40512829,-99999.0,'11111222,11111222,99999999' 
TABS,ioos:station:wmo:42045:1,2007-03-11T17:30:00Z,26.2168,-96.4998,2.0,39.53566774,23.09298811,-99999.0,'11111222,11111222,99999999' 
TABS,ioos:station:wmo:42045:1,2007-03-11T18:00:00Z,26.2168,-96.4998,2.0,43.23718686,23.44461559,-99999.0,'11111222,11111222,99999999' 
TABS,ioos:station:wmo:42045:1,2007-03-11T18:30:00Z,26.2168,-96.4998,2.0,41.43618453,22.40912537,-99999.0,'11111222,11111222,99999999' 
TABS,ioos:station:wmo:42045:1,2007-03-11T19:00:00Z,26.2168,-96.4998,2.0,42.89068564,20.55538129,-99999.0,'11111222,11111222,99999999' 
TABS,ioos:station:wmo:42045:1,2007-03-11T19:30:00Z,26.2168,-96.4998,2.0,45.61001588,21.2568342,-99999.0,'11111222,11111222,99999999' 
TABS,ioos:station:wmo:42045:1,2007-03-11T20:00:00Z,26.2168,-96.4998,2.0,39.36701012,18.72978377,-99999.0,'11111222,11111222,99999999' 
TABS,ioos:station:wmo:42045:1,2007-03-11T20:30:00Z,26.2168,-96.4998,2.0,51.52118343,17.80702109,-99999.0,'11111222,11111222,99999999' 
TABS,ioos:station:wmo:42045:1,2007-03-11T21:00:00Z,26.2168,-96.4998,2.0,51.47910829,18.0474929,-99999.0,'11111222,11111222,99999999' 
TABS,ioos:station:wmo:42045:1,2007-03-11T21:30:00Z,26.2168,-96.4998,2.0,59.07531018,15.11931877,-99999.0,'11111222,11111222,99999999' 
TABS,ioos:station:wmo:42045:1,2007-03-11T22:00:00Z,26.2168,-96.4998,2.0,52.58444843,13.01859055,-99999.0,'11111222,11111222,99999999' 
TABS,ioos:station:wmo:42045:1,2007-03-11T22:30:00Z,26.2168,-96.4998,2.0,46.40369931,9.237586265,-99999.0,'11133222,11111222,99999999' 
TABS,ioos:station:wmo:42045:1,2007-03-11T23:00:00Z,26.2168,-96.4998,2.0,38.01629709,8.897780622,-99999.0,'11133222,11111222,99999999' 
TABS,ioos:station:wmo:42045:1,2007-03-11T23:30:00Z,26.2168,-96.4998,2.0,41.64069381,6.757410747,-99999.0,'11133222,11111222,99999999' 
TABS,ioos:station:wmo:42045:1,2007-03-12T00:00:00Z,26.2168,-96.4998,2.0,49.74113395,7.443016861,-99999.0,'11133222,11111222,99999999' 
TABS,ioos:station:wmo:42045:1,2007-03-12T00:30:00Z,26.2168,-96.4998,2.0,25.88717619,6.046751194,-99999.0,'11133222,11111222,99999999' 
TABS,ioos:station:wmo:42045:1,2007-03-12T01:00:00Z,26.2168,-96.4998,2.0,21.30594425,6.440155278,-99999.0,'11133222,11111222,99999999' 
TABS,ioos:station:wmo:42045:1,2007-03-12T01:30:00Z,26.2168,-96.4998,2.0,37.83967225,4.254609265,-99999.0,'11133222,11111222,99999999' 
TABS,ioos:station:wmo:42045:1,2007-03-12T02:00:00Z,26.2168,-96.4998,2.0,26.77129807,3.729785517,-99999.0,'11133222,11111222,99999999' 
TABS,ioos:station:wmo:42045:1,2007-03-12T02:30:00Z,26.2168,-96.4998,2.0,81.34747844,2.79177363,-99999.0,'11133222,11111222,99999999' 
TABS,ioos:station:wmo:42045:1,2007-03-12T03:00:00Z,26.2168,-96.4998,2.0,51.36002565,4.532162839,-99999.0,'11133222,11111222,99999999' 
TABS,ioos:station:wmo:42045:1,2007-03-12T03:30:00Z,26.2168,-96.4998,2.0,37.26038568,6.45814989,-99999.0,'11133222,11111222,99999999' 
TABS,ioos:station:wmo:42045:1,2007-03-12T04:00:00Z,26.2168,-96.4998,2.0,28.26007042,6.652976777,-99999.0,'11133222,11111222,99999999' 
TABS,ioos:station:wmo:42045:1,2007-03-12T04:30:00Z,26.2168,-96.4998,2.0,65.36166089,5.852862548,-99999.0,'11133222,11111222,99999999' 
TABS,ioos:station:wmo:42045:1,2007-03-12T05:00:00Z,26.2168,-96.4998,2.0,34.91953081,3.878247027,-99999.0,'11133222,11111222,99999999' 
TABS,ioos:station:wmo:42045:1,2007-03-12T05:30:00Z,26.2168,-96.4998,2.0,11.21155756,6.840540914,-99999.0,'11133222,11111222,99999999' 
TABS,ioos:station:wmo:42045:1,2007-03-12T06:00:00Z,26.2168,-96.4998,2.0,9.832274012,5.094830714,-99999.0,'11133222,11111222,99999999' 
TABS,ioos:station:wmo:42045:1,2007-03-12T06:30:00Z,26.2168,-96.4998,2.0,322.948701,5.676028541,-99999.0,'11133222,11111222,99999999' 
TABS,ioos:station:wmo:42045:1,2007-03-12T07:00:00Z,26.2168,-96.4998,2.0,314.4539656,11.12329538,-99999.0,'11111222,11111222,99999999' 
TABS,ioos:station:wmo:42045:1,2007-03-12T07:30:00Z,26.2168,-96.4998,2.0,336.9566665,10.19335568,-99999.0,'11111222,11111222,99999999' 
TABS,ioos:station:wmo:42045:1,2007-03-12T08:00:00Z,26.2168,-96.4998,2.0,349.3340486,11.34603455,-99999.0,'11111222,11111222,99999999' 
TABS,ioos:station:wmo:42045:1,2007-03-12T08:30:00Z,26.2168,-96.4998,2.0,347.5190593,13.04837155,-99999.0,'11111222,11111222,99999999' 
TABS,ioos:station:wmo:42045:1,2007-03-12T09:00:00Z,26.2168,-96.4998,2.0,349.3865548,11.78156611,-99999.0,'11111222,11111222,99999999' 
TABS,ioos:station:wmo:42045:1,2007-03-12T09:30:00Z,26.2168,-96.4998,2.0,347.7903553,12.86092143,-99999.0,'11111222,11111222,99999999' 
TABS,ioos:station:wmo:42045:1,2007-03-12T10:00:00Z,26.2168,-96.4998,2.0,348.1749641,17.22557691,-99999.0,'11111222,11111222,99999999' 
TABS,ioos:station:wmo:42045:1,2007-03-12T10:30:00Z,26.2168,-96.4998,2.0,347.0382773,15.78214181,-99999.0,'11111222,11111222,99999999' 
TABS,ioos:station:wmo:42045:1,2007-03-12T11:00:00Z,26.2168,-96.4998,2.0,355.0375902,17.45543468,-99999.0,'11111222,11111222,99999999' 
TABS,ioos:station:wmo:42045:1,2007-03-12T11:30:00Z,26.2168,-96.4998,2.0,359.9682553,17.93000279,-99999.0,'11111222,11144222,99999999' 
TABS,ioos:station:wmo:42045:1,2007-03-12T12:00:00Z,26.2168,-96.4998,2.0,2.104128658,18.52248633,-99999.0,'11111222,11111222,99999999' 
TABS,ioos:station:wmo:42045:1,2007-03-12T12:30:00Z,26.2168,-96.4998,2.0,359.3113181,19.96144283,-99999.0,'11111222,11144222,99999999' 
TABS,ioos:station:wmo:42045:1,2007-03-12T13:00:00Z,26.2168,-96.4998,2.0,9.436663854,14.57725969,-99999.0,'11111222,11111222,99999999' 
TABS,ioos:station:wmo:42045:1,2007-03-12T13:30:00Z,26.2168,-96.4998,2.0,20.83991094,15.60060576,-99999.0,'11111222,11111222,99999999' 
TABS,ioos:station:wmo:42045:1,2007-03-12T14:00:00Z,26.2168,-96.4998,2.0,33.30977093,13.78460373,-99999.0,'11111222,11111222,99999999' 
TABS,ioos:station:wmo:42045:1,2007-03-12T14:30:00Z,26.2168,-96.4998,2.0,43.51716568,11.74897868,-99999.0,'11111222,11111222,99999999' 
TABS,ioos:station:wmo:42045:1,2007-03-12T15:00:00Z,26.2168,-96.4998,2.0,45.27221971,13.39982463,-99999.0,'11111222,11111222,99999999' 
TABS,ioos:station:wmo:42045:1,2007-03-12T15:30:00Z,26.2168,-96.4998,2.0,52.2868913,10.87117749,-99999.0,'11111222,11111222,99999999' 
TABS,ioos:station:wmo:42045:1,2007-03-12T16:00:00Z,26.2168,-96.4998,2.0,100.7112967,8.447182962,-99999.0,'11133222,11111222,99999999' 
TABS,ioos:station:wmo:42045:1,2007-03-12T16:30:00Z,26.2168,-96.4998,2.0,187.2155665,4.697201294,-99999.0,'11133222,11111222,99999999' 
TABS,ioos:station:wmo:42045:1,2007-03-12T17:00:00Z,26.2168,-96.4998,2.0,262.2672735,11.00001818,-99999.0,'11111222,11111222,99999999' 
TABS,ioos:station:wmo:42045:1,2007-03-12T17:30:00Z,26.2168,-96.4998,2.0,254.6304421,13.6584516,-99999.0,'11111222,11111222,99999999' 
TABS,ioos:station:wmo:42045:1,2007-03-12T18:00:00Z,26.2168,-96.4998,2.0,258.1551733,15.34675536,-99999.0,'11111222,11111222,99999999' 
TABS,ioos:station:wmo:42045:1,2007-03-12T18:30:00Z,26.2168,-96.4998,2.0,268.5742415,23.31721467,-99999.0,'11111222,11111222,99999999' 
TABS,ioos:station:wmo:42045:1,2007-03-12T19:00:00Z,26.2168,-96.4998,2.0,264.9352088,28.32055967,-99999.0,'11111222,11111222,99999999' 
TABS,ioos:station:wmo:42045:1,2007-03-12T19:30:00Z,26.2168,-96.4998,2.0,273.5450127,30.4081716,-99999.0,'11111222,11111222,99999999' 
TABS,ioos:station:wmo:42045:1,2007-03-12T20:00:00Z,26.2168,-96.4998,2.0,278.8548996,29.75460301,-99999.0,'11111222,11111222,99999999' 
TABS,ioos:station:wmo:42045:1,2007-03-12T20:30:00Z,26.2168,-96.4998,2.0,273.3602695,35.66129695,-99999.0,'11111222,11111222,99999999' 